SHIYAN-12 01 (SY-12 01)

Last updated on Thu Oct 30 2025 00:02:52 GMT+0000 (Coordinated Universal Time)

1 50321U 21129A 25302.73241117 -.00000316 00000+0 00000+0 0 9993 2 50321 3.0754 83.1183 0002886 182.3613 164.3744 1.00441863 14184
UTC large
Height (km)
Speed (km/s)
/
Latitude / Longitude
Inclination (degrees)
Orbital Period (minutes)
Azimuth
Elevation
Range (km)
Doppler Factor

Next 0 passes for location: London (51.5072 / 0.1276)

Sorry there are no passes over London.